Weather History for PASD - December, 2012

Change the Weather History Date:

Sunday, December 9, 2012

  Actual Average (PACD) Record (PACD)
Temperature  
Mean Temperature 40 °F 32 °F  
Max Temperature 42 °F 36 °F 48 °F (2013)
Min Temperature 37 °F 28 °F 4 °F (1975)
Degree Days  
Heating Degree Days 26 33  
Month to date heating degree days 294  
Since 1 July heating degree days 3320  
Cooling Degree Days 0    
Month to date cooling degree days  
Year to date cooling degree days  
Moisture  
Dew Point 34 °F    
Average Humidity 80    
Maximum Humidity 93    
Minimum Humidity 70    
Precipitation  
Precipitation 0.00 in 0.16 in 1.10 in (2007)
Month to date precipitation 1.46  
Year to date precipitation 38.67  
Snow  
Snow 0.00 in 0.40 in 5.40 in (1997)
Month to date snowfall 3.7  
Since 1 July snowfall 16.3  
Snow Depth -    
Sea Level Pressure  
Sea Level Pressure 29.30 in    
Wind  
Wind Speed 30 mph (SW)    
Max Wind Speed 48 mph    
Max Gust Speed 61 mph    
Visibility 8 miles    
Events      
T = Trace of Precipitation, MM = Missing Value Source: NWS Daily Summary

Daily Weather History Graph

Daily Weather History Graph

Search for Another Location

Airport or City:

Trip Planner

Search our weather history database for the weather conditions in past years. The results will help you decide how hot, cold, wet, or windy it might be!

Date:

Astronomy

Dec. 09, 2012 Rise Set
Actual Time 9:57 AM AKST 5:12 PM AKST
Civil Twilight 9:11 AM AKST 5:57 PM AKST
Nautical Twilight 8:24 AM AKST 6:45 PM AKST
Astronomical Twilight 7:39 AM AKST 7:29 PM AKST
Moon 5:12 AM AKST (12/9) 2:54 PM AKST (12/9)
Length of Visible Light 8h 45m
Length of Day
7h 14m
Waning Crescent, 17% of the Moon is Illuminated
Dec 9
Waning Crescent
Dec 12
New
Dec 19
First Quarter
Dec 28
Full
Jan 4
Last Quarter

Hourly Weather History & Observations

Time (AKST) Temp. Windchill Dew Point Humidity Pressure Visibility Wind Dir Wind Speed Gust Speed Precip Events Conditions
12:16 AM 41.0 °F 29.1 °F 39.2 °F 93% 28.78 in 5.0 mi South 34.5 mph 57.5 mph N/A   Overcast
12:36 AM 41.0 °F 27.3 °F 39.2 °F 93% 28.80 in 4.0 mi South 48.3 mph 56.4 mph N/A   Overcast
12:56 AM 42.8 °F 30.4 °F 39.2 °F 87% 28.81 in 4.0 mi South 43.7 mph 57.5 mph N/A   Overcast
1:16 AM 41.0 °F 28.3 °F 39.2 °F 93% 28.83 in 3.0 mi SSW 40.3 mph 55.2 mph N/A   Overcast
1:36 AM 42.8 °F 31.0 °F 39.2 °F 87% 28.85 in 4.0 mi SSW 39.1 mph 59.8 mph N/A   Overcast
1:56 AM 41.0 °F 28.0 °F 39.2 °F 93% 28.85 in 5.0 mi SSW 42.6 mph 58.7 mph N/A   Overcast
2:16 AM 41.0 °F 28.8 °F 37.4 °F 87% 28.88 in 5.0 mi SSW 36.8 mph 61.0 mph N/A   Overcast
2:56 AM 41.0 °F 29.5 °F 39.2 °F 93% 28.91 in 2.5 mi SSW 32.2 mph 48.3 mph N/A   Overcast
3:16 AM 41.0 °F 28.8 °F 39.2 °F 93% 28.93 in 3.0 mi SSW 36.8 mph 47.2 mph N/A   Overcast
3:36 AM 41.0 °F 28.5 °F 37.4 °F 87% 28.95 in 6.0 mi SSW 39.1 mph 58.7 mph N/A   Overcast
3:56 AM 41.0 °F 28.5 °F 37.4 °F 87% 28.96 in 4.0 mi SSW 39.1 mph 52.9 mph N/A   Overcast
4:16 AM 41.0 °F 29.5 °F 37.4 °F 87% 28.99 in 3.0 mi SSW 32.2 mph 51.8 mph N/A   Overcast
4:36 AM 39.2 °F 26.5 °F 37.4 °F 93% 29.01 in 2.5 mi SSW 35.7 mph 54.1 mph N/A   Overcast
4:56 AM 39.2 °F 25.4 °F 37.4 °F 93% 29.01 in 4.0 mi SSW 43.7 mph 54.1 mph N/A   Overcast
5:16 AM 41.0 °F 28.8 °F 37.4 °F 87% 29.05 in 8.0 mi SSW 36.8 mph 50.6 mph N/A   Overcast
5:36 AM 41.0 °F 28.6 °F 35.6 °F 81% 29.06 in 8.0 mi SSW 38.0 mph 56.4 mph N/A   Overcast
5:56 AM 41.0 °F 29.1 °F 35.6 °F 81% 29.07 in 9.0 mi SSW 34.5 mph 51.8 mph N/A   Overcast
6:16 AM 41.0 °F 29.0 °F 35.6 °F 81% 29.09 in 10.0 mi SW 35.7 mph 56.4 mph N/A   Overcast
6:36 AM 41.0 °F 29.8 °F 35.6 °F 81% 29.11 in 10.0 mi SSW 29.9 mph 54.1 mph N/A   Overcast
6:56 AM 41.0 °F 29.0 °F 35.6 °F 81% 29.12 in 10.0 mi SW 35.7 mph 54.1 mph N/A   Overcast
7:16 AM 41.0 °F 30.0 °F 33.8 °F 76% 29.15 in 10.0 mi SSW 28.8 mph 52.9 mph N/A   Overcast
7:36 AM 41.0 °F 29.5 °F 33.8 °F 76% 29.18 in 10.0 mi SW 32.2 mph 40.3 mph N/A   Overcast
7:56 AM 41.0 °F 31.1 °F 33.8 °F 76% 29.19 in 10.0 mi SW 23.0 mph 33.4 mph N/A   Overcast
8:16 AM 41.0 °F 30.5 °F 33.8 °F 76% 29.21 in 10.0 mi SSW 26.5 mph 39.1 mph N/A   Overcast
8:36 AM 39.2 °F 27.8 °F 33.8 °F 81% 29.23 in 10.0 mi SSW 27.6 mph 39.1 mph N/A   Overcast
8:56 AM 39.2 °F 28.5 °F 33.8 °F 81% 29.23 in 2.5 mi SSW 24.2 mph 44.9 mph N/A   Overcast
9:16 AM 39.2 °F 29.0 °F 33.8 °F 81% 29.26 in 5.0 mi SSW 21.9 mph 35.7 mph N/A   Overcast
9:36 AM 39.2 °F 29.3 °F 33.8 °F 81% 29.27 in 5.0 mi SSW 20.7 mph 35.7 mph N/A   Overcast
9:56 AM 37.4 °F 25.9 °F 33.8 °F 87% 29.28 in 5.0 mi SW 25.3 mph 40.3 mph N/A   Overcast
10:16 AM 39.2 °F 28.5 °F 33.8 °F 81% 29.30 in 10.0 mi SSW 24.2 mph 38.0 mph N/A   Mostly Cloudy
10:36 AM 39.2 °F 30.5 °F 33.8 °F 81% 29.32 in 10.0 mi SSW 16.1 mph 34.5 mph N/A   Mostly Cloudy
10:56 AM 39.2 °F 29.0 °F 32.0 °F 75% 29.32 in 10.0 mi SW 21.9 mph 39.1 mph N/A   Mostly Cloudy
11:16 AM 39.2 °F 28.3 °F 32.0 °F 75% 29.34 in 10.0 mi SSW 25.3 mph 34.5 mph N/A   Mostly Cloudy
11:36 AM 39.2 °F 29.3 °F 32.0 °F 75% 29.36 in 10.0 mi SW 20.7 mph 36.8 mph N/A   Mostly Cloudy
11:56 AM 39.2 °F 28.5 °F 32.0 °F 75% 29.36 in 10.0 mi SSW 24.2 mph 41.4 mph N/A   Mostly Cloudy
12:16 PM 39.2 °F 27.6 °F 33.8 °F 81% 29.37 in 8.0 mi SSW 28.8 mph 36.8 mph N/A   Mostly Cloudy
12:36 PM 39.2 °F 28.3 °F 33.8 °F 81% 29.40 in 10.0 mi SSW 25.3 mph 36.8 mph N/A   Mostly Cloudy
12:56 PM 39.2 °F 29.8 °F 33.8 °F 81% 29.40 in 10.0 mi SW 18.4 mph 28.8 mph N/A   Mostly Cloudy
1:16 PM 39.2 °F 30.5 °F 33.8 °F 81% 29.41 in 10.0 mi SW 16.1 mph 33.4 mph N/A   Mostly Cloudy
1:36 PM 39.2 °F 28.7 °F 30.2 °F 70% 29.43 in 10.0 mi SW 23.0 mph 31.1 mph N/A   Mostly Cloudy
1:56 PM 39.2 °F 28.7 °F 32.0 °F 75% 29.44 in 10.0 mi SSW 23.0 mph 34.5 mph N/A   Mostly Cloudy
2:16 PM 39.2 °F 28.3 °F 33.8 °F 81% 29.45 in 10.0 mi SW 25.3 mph 43.7 mph N/A   Mostly Cloudy
2:36 PM 39.2 °F 29.0 °F 32.0 °F 75% 29.46 in 10.0 mi SW 21.9 mph 31.1 mph N/A   Mostly Cloudy
2:56 PM 39.2 °F 30.8 °F 32.0 °F 75% 29.47 in 10.0 mi SW 15.0 mph 31.1 mph N/A   Mostly Cloudy
3:16 PM 39.2 °F 31.6 °F 32.0 °F 75% 29.46 in 10.0 mi WSW 12.7 mph 36.8 mph N/A   Mostly Cloudy
3:36 PM 39.2 °F 31.2 °F 32.0 °F 75% 29.47 in 10.0 mi SW 13.8 mph 39.1 mph N/A   Mostly Cloudy
3:56 PM 37.4 °F 27.5 °F 33.8 °F 87% 29.49 in 4.0 mi SSW 18.4 mph 27.6 mph N/A   Overcast
4:16 PM 39.2 °F 30.2 °F 33.8 °F 81% 29.49 in 10.0 mi SW 17.3 mph 24.2 mph N/A   Overcast
4:36 PM 39.2 °F 30.5 °F 33.8 °F 81% 29.49 in 10.0 mi SSW 16.1 mph 24.2 mph N/A   Mostly Cloudy
4:56 PM 39.2 °F 32.0 °F 33.8 °F 81% 29.51 in 10.0 mi SSW 11.5 mph 25.3 mph N/A   Mostly Cloudy
5:16 PM 39.2 °F 29.6 °F 32.0 °F 75% 29.51 in 10.0 mi SW 19.6 mph 29.9 mph N/A   Mostly Cloudy
5:36 PM 39.2 °F 30.5 °F 32.0 °F 75% 29.51 in 10.0 mi SSW 16.1 mph 19.6 mph N/A   Mostly Cloudy
5:56 PM 39.2 °F 31.6 °F 32.0 °F 75% 29.53 in 10.0 mi SW 12.7 mph 19.6 mph N/A   Overcast
6:16 PM 39.2 °F 30.5 °F 32.0 °F 75% 29.53 in 10.0 mi SW 16.1 mph 25.3 mph N/A   Overcast
6:36 PM 39.2 °F 30.8 °F 32.0 °F 75% 29.53 in 10.0 mi SW 15.0 mph 26.5 mph N/A   Overcast
6:56 PM 39.2 °F 29.8 °F 32.0 °F 75% 29.53 in 10.0 mi SW 18.4 mph 25.3 mph N/A   Overcast
7:16 PM 39.2 °F 30.5 °F 32.0 °F 75% 29.55 in 10.0 mi SW 16.1 mph 25.3 mph N/A   Overcast
7:36 PM 39.2 °F 29.6 °F 32.0 °F 75% 29.54 in 10.0 mi SW 19.6 mph 27.6 mph N/A   Mostly Cloudy
7:56 PM 39.2 °F 29.6 °F 30.2 °F 70% 29.54 in 10.0 mi SW 19.6 mph 25.3 mph N/A   Mostly Cloudy
8:16 PM 39.2 °F 31.6 °F 32.0 °F 75% 29.55 in 10.0 mi SW 12.7 mph 25.3 mph N/A   Overcast
8:36 PM 39.2 °F 32.0 °F 32.0 °F 75% 29.56 in 10.0 mi WSW 11.5 mph - N/A   Overcast
8:56 PM 39.2 °F 31.2 °F 30.2 °F 70% 29.55 in 10.0 mi SW 13.8 mph 21.9 mph N/A   Scattered Clouds
9:16 PM 39.2 °F 31.2 °F 30.2 °F 70% 29.56 in 10.0 mi SW 13.8 mph 23.0 mph N/A   Scattered Clouds
9:36 PM 37.4 °F 28.5 °F 30.2 °F 75% 29.57 in 10.0 mi WSW 15.0 mph 19.6 mph N/A   Mostly Cloudy
9:56 PM 37.4 °F 28.9 °F 30.2 °F 75% 29.58 in 10.0 mi SW 13.8 mph 20.7 mph N/A   Mostly Cloudy
10:16 PM 37.4 °F 27.8 °F 30.2 °F 75% 29.56 in 10.0 mi SW 17.3 mph 25.3 mph N/A   Mostly Cloudy
10:36 PM 37.4 °F 28.5 °F 30.2 °F 75% 29.57 in 10.0 mi SW 15.0 mph 19.6 mph N/A   Scattered Clouds
10:56 PM 37.4 °F 30.3 °F 32.0 °F 81% 29.59 in 10.0 mi SW 10.4 mph - N/A   Mostly Cloudy
11:16 PM 37.4 °F 30.3 °F 32.0 °F 81% 29.58 in 10.0 mi SW 10.4 mph 17.3 mph N/A   Scattered Clouds
11:56 PM 37.4 °F 28.9 °F 30.2 °F 75% 29.60 in 10.0 mi WSW 13.8 mph 20.7 mph N/A   Mostly Cloudy